軌道要素
Epoch 2009 June 18.0 TT = JDT 2455000.5
T 2009 June 23.08980 TT MPC
q 1.7982217 (2000.0) P Q
z +0.0001425 Peri. 340.85360 -0.56422670 -0.71956117
+/-0.0000007 Node 219.73407 -0.65050452 +0.08550228
e 0.9997438 Incl. 140.70604 -0.50842118 +0.68914518
From 624 observations 2009 May 3-2010 June 3, mean residual 0".6.
|